CAPE
0 0 0 0 0 0 0 0 0 0 0 0 0 0 0 0 0 0 0 0 0 0
0 0 0 0 0 0 0 0 0 0 0 0 0 0 0 0 0 0 0 0 0 0
0 0 0 0 0 0 0 0 0 0 0 0 0 0 0 0 0 0 0 0 0 0
0 0 0 0 0 0 0 0 0 0 0 0 0 0 0 0 0 0 0 0 0 0
0 0 0 0 0 0 0 0 0 0 0 0 0 0 0 0 0 0 0 0 0 1
0 0 0 0 0 0 0 0 0 0 0 0 0 0 0 0 0 0 0 0 0 0
0 0 0 0 0 0 0 0 0 0 0 0 0 0 0 0 0 0 0 0 0 0
0 0 0 0 0 0 0 1 1 0 0 0 0 0 0 0 0 0 0 0 0 0
0 0 0 0 0 5 2 5 1 0 0 0 0 0 0 0 0 0 0 0 0 0
0 0 0 0 0 0 1 0 0 0 0 0 0 0 0 0 0 0 0 0 0 0
0 0 0 0 0 0 0 0 0 0 0 0 0 0 0 0 0 0 0 0 0 0
0 1 0 1 0 0 0 0 0 0 0 0 0 0 0 0 0 0 0 0 0 0
0 1 0 1 0 0 0 2 1 0 0 0 0 0 0 0 0 1 0 0 0 0
0 1 1 0 2 1 3 2 0 0 0 0 0 0 0 0 0 0 0 0 0 0
CIN
0 0 0 0 0 0 0 0 0 0 0 0 0 0 0 0 0 0 0 0 0 0
0 0 0 0 0 0 0 0 0 0 0 0 0 0 0 0 0 0 0 0 0 0
0 0 0 0 0 0 0 0 0 0 0 0 0 0 0 0 0 0 0 0 0 0
0 0 0 0 0 0 0 0 0 0 0 0 0 0 0 0 0 0 0 0 0 0
0 0 0 0 0 0 0 0 0 0 0 0 0 0 0 0 0 0 0 0 -1 -5
0 0 0 0 0 0 0 0 0 0 0 0 0 0 0 0 0 0 0 0 0 -1
0 0 0 0 0 0 0 0 0 0 0 0 0 0 0 0 0 0 0 -1 -1 -3
0 0 0 0 0 0 0 -4 -9 0 0 0 0 0 0 0 0 0 0 -1 -3 0
0 0 0 0 -8 -2 -2 -2 -4 -2 -2 0 0 0 0 0 0 0 -1 -1 0 0
0 0 0 0 0 -1 -1 -1 0 0 0 0 0 0 0 0 0 0 -1 0 -1 0
0 0 0 0 0 0 0 0 0 0 0 0 0 0 0 0 0 0 0 0 0 0
0 0 0 0 0 0 0 0 0 0 0 0 0 0 0 0 0 -1 0 0 0 0
0 0 0 0 0 -2 -1 -1 -1 0 0 0 0 0 0 0 0 0 0 0 0 0
-8 0 0 0 0 -1 0 0 -1 0 0 0 0 0 0 0 0 0 0 0 0 0
Wind_Speed
16 15 15 15 14 12 12 13 14 15 16 15 15 15 15 16 16 15 17 18 19 20
16 16 17 17 15 13 14 13 13 16 16 15 15 15 14 14 14 16 17 20 20 21
17 16 17 16 15 15 14 13 15 16 16 16 15 14 13 13 14 15 17 20 21 22
17 16 15 15 15 15 15 14 14 15 17 17 18 15 14 14 13 15 18 19 20 21
15 14 13 13 14 14 14 14 17 14 14 15 18 14 15 15 15 16 18 19 20 22
14 13 12 12 12 13 12 14 14 15 16 18 16 17 16 17 15 16 17 18 20 21
13 12 13 12 11 12 14 16 16 17 18 19 17 18 19 17 17 18 18 16 17 17
12 12 11 11 12 13 12 14 18 16 15 15 13 17 16 15 16 18 18 17 16 16
11 10 9 10 11 14 18 13 11 10 10 14 12 13 14 15 16 17 16 15 14 15
10 9 9 12 12 12 11 8 8 10 12 12 13 12 14 15 16 14 14 14 14 14
10 10 11 11 15 12 9 9 11 12 12 12 13 12 13 13 15 15 14 14 14 14
11 12 13 12 15 15 14 12 13 11 11 11 10 11 13 14 16 15 14 14 15 14
11 11 12 14 20 13 15 13 10 10 10 11 9 10 11 13 15 15 14 13 15 15
11 12 10 12 15 16 11 12 10 10 10 9 8 10 12 13 14 14 13 12 14 14
Wind_Direction
310 304 303 304 304 303 308 313 315 312 311 311 311 311 311 308 309 319 312 307 311 310
305 300 298 299 298 298 304 307 309 308 308 310 311 311 312 313 314 312 310 305 308 310
305 300 297 296 295 296 300 303 304 304 305 306 307 310 312 314 314 315 312 309 309 305
309 305 300 295 294 293 296 300 303 301 298 299 298 306 310 313 316 316 314 315 312 312
313 311 305 298 294 293 296 301 297 302 302 298 296 307 308 310 314 317 316 319 318 316
315 313 309 302 297 295 300 302 303 298 294 296 298 302 305 304 314 319 324 323 321 319
317 316 312 305 302 301 303 299 297 293 292 290 299 295 299 305 308 314 320 327 327 328
322 322 319 314 312 311 309 304 294 299 297 294 308 295 295 308 314 313 316 324 328 329
324 325 324 319 310 310 308 303 304 304 311 292 306 309 310 315 314 316 318 322 327 326
316 312 312 314 317 315 310 312 312 311 306 308 307 322 316 317 319 322 321 319 325 325
307 299 302 310 300 312 318 306 306 308 309 315 318 325 325 324 321 319 318 320 325 326
309 299 295 293 297 298 300 304 303 312 315 314 327 326 324 324 318 315 319 323 318 322
312 306 296 291 287 298 297 304 312 312 320 317 328 334 331 326 323 317 319 329 322 325
318 309 300 296 287 286 302 298 306 308 317 327 334 322 319 322 322 322 326 333 332 333